Salida, CO

1:39 AM MDT on August 19, 2017 (GMT -0600)
Salida

Weather History for KANK - February, 2013

Change the Weather History Date:

Saturday, February 2, 2013

  Actual Average (KGUC) Record (KGUC)
Temperature  
Mean Temperature 36 °F -  
Max Temperature 49 °F 23 °F 39 °F (2015)
Min Temperature 24 °F 0 °F -16 °F (2011)
Degree Days  
Heating Degree Days 28    
Moisture  
Dew Point 7 °F    
Average Humidity 31    
Maximum Humidity 54    
Minimum Humidity 15    
Precipitation  
Precipitation 0.00 in - - ()
Sea Level Pressure  
Sea Level Pressure 30.39 in    
Wind  
Wind Speed 8 mph (West)    
Max Wind Speed 17 mph    
Max Gust Speed 26 mph    
Visibility 10 miles    
Events      
Averages and records for this station are not official NWS values.
T = Trace of Precipitation, MM = Missing Value Source: NWS Daily Summary

Daily Weather History Graph

Daily Weather History Graph

Search for Another Location

Airport or City:

Trip Planner

Search our weather history database for the weather conditions in past years. The results will help you decide how hot, cold, wet, or windy it might be!

Date:

Astronomy

Feb. 02, 2013 Rise Set
Actual Time 7:08 AM MST 5:27 PM MST
Civil Twilight 6:40 AM MST 5:55 PM MST
Nautical Twilight 6:09 AM MST 6:27 PM MST
Astronomical Twilight 5:37 AM MST 6:58 PM MST
Moon No Moon Rise 10:26 AM MST (2/2)
Length of Visible Light 11h 15m
Length of Day
10h 19m
Waning Gibbous, 59% of the Moon is Illuminated
Feb 2
Waning Gibbous
Feb 3
Last Quarter
Feb 10
New
Feb 17
First Quarter
Feb 25
Full

Hourly Weather History & Observations

Time (MST) Temp. Windchill Dew Point Humidity Pressure Visibility Wind Dir Wind Speed Gust Speed Precip Events Conditions
12:15 AM 32.9 °F 25.3 °F 7.3 °F 34% 30.32 in 10.0 mi WNW 9.2 mph - N/A   Clear
12:35 AM 33.4 °F 28.1 °F 6.8 °F 33% 30.32 in 10.0 mi NW 5.8 mph - N/A   Clear
12:55 AM 30.2 °F 24.3 °F 8.8 °F 41% 30.32 in 10.0 mi NNW 5.8 mph - N/A   Clear
1:15 AM 28.6 °F 20.7 °F 9.0 °F 44% 30.32 in 10.0 mi NW 8.1 mph - N/A   Clear
1:35 AM 30.0 °F 23.2 °F 9.0 °F 41% 30.32 in 10.0 mi NW 6.9 mph - N/A   Clear
1:55 AM 31.8 °F 27.3 °F 8.8 °F 38% 30.34 in 10.0 mi WNW 4.6 mph - N/A   Clear
2:15 AM 29.8 °F 23.9 °F 8.2 °F 40% 30.35 in 10.0 mi West 5.8 mph - N/A   Clear
2:35 AM 30.0 °F 24.1 °F 8.8 °F 41% 30.35 in 10.0 mi NW 5.8 mph - N/A   Clear
2:55 AM 31.3 °F 27.9 °F 8.8 °F 39% 30.37 in 10.0 mi WNW 3.5 mph - N/A   Clear
3:15 AM 30.7 °F 23.3 °F 9.3 °F 41% 30.36 in 10.0 mi NW 8.1 mph - N/A   Clear
3:35 AM 30.0 °F 26.5 °F 9.1 °F 42% 30.37 in 10.0 mi West 3.5 mph - N/A   Clear
3:55 AM 27.7 °F 22.4 °F 9.0 °F 45% 30.37 in 10.0 mi NW 4.6 mph - N/A   Clear
4:15 AM 28.8 °F 23.7 °F 8.6 °F 43% 30.37 in 10.0 mi WSW 4.6 mph - N/A   Clear
4:35 AM 29.8 °F 22.2 °F 8.8 °F 41% 30.37 in 10.0 mi NW 8.1 mph - N/A   Clear
4:55 AM 30.7 °F 22.0 °F 8.6 °F 40% 30.37 in 10.0 mi NW 10.4 mph - N/A   Clear
5:15 AM 30.4 °F 21.5 °F 8.8 °F 40% 30.38 in 10.0 mi WNW 10.4 mph - N/A   Clear
5:35 AM 30.0 °F 20.5 °F 8.8 °F 41% 30.37 in 10.0 mi NNW 11.5 mph - N/A   Clear
5:55 AM 29.3 °F 21.5 °F 9.0 °F 43% 30.37 in 10.0 mi NW 8.1 mph - N/A   Clear
6:15 AM 27.5 °F 21.1 °F 8.8 °F 45% 30.38 in 10.0 mi WNW 5.8 mph - N/A   Clear
6:35 AM 25.2 °F 17.3 °F 9.9 °F 52% 30.38 in 10.0 mi WNW 6.9 mph - N/A   Clear
7:35 AM 24.8 °F 15.3 °F 10.0 °F 54% 30.40 in 10.0 mi North 9.2 mph - N/A   Clear
7:55 AM 26.8 °F 17.7 °F 9.9 °F 49% 30.41 in 10.0 mi NNW 9.2 mph - N/A   Clear
8:15 AM 29.8 °F 20.9 °F 9.3 °F 42% 30.42 in 10.0 mi NNW 10.4 mph - N/A   Clear
8:35 AM 32.0 °F 22.1 °F 8.2 °F 37% 30.42 in 10.0 mi NNW 13.8 mph - N/A   Clear
8:55 AM 32.9 °F 24.7 °F 7.9 °F 35% 30.43 in 10.0 mi NNW 10.4 mph - N/A   Clear
9:15 AM 34.3 °F 26.5 °F 7.7 °F 33% 30.42 in 10.0 mi North 10.4 mph - N/A   Clear
9:35 AM 36.3 °F 28.9 °F 8.2 °F 31% 30.42 in 10.0 mi North 10.4 mph - N/A   Clear
9:55 AM 38.1 °F 33.7 °F 8.2 °F 29% 30.42 in 10.0 mi NNE 5.8 mph - N/A   Clear
10:15 AM 40.1 °F 35.3 °F 8.2 °F 27% 30.43 in 10.0 mi North 6.9 mph - N/A   Clear
10:35 AM 41.4 °F 37.6 °F 7.3 °F 25% 30.43 in 10.0 mi NNW 5.8 mph - N/A   Clear
10:55 AM 43.2 °F 40.5 °F 5.4 °F 21% 30.43 in 10.0 mi West 4.6 mph - N/A   Clear
11:15 AM 45.0 °F 41.8 °F 4.8 °F 19% 30.42 in 10.0 mi WSW 5.8 mph - N/A   Clear
11:35 AM 46.9 °F - 4.3 °F 17% 30.40 in 10.0 mi South 4.6 mph - N/A   Clear
11:55 AM 48.2 °F - 3.9 °F 16% 30.40 in 10.0 mi SW 9.2 mph 16.1 mph N/A   Clear
12:15 PM 48.9 °F - 4.6 °F 16% 30.39 in 10.0 mi SW 10.4 mph - N/A   Clear
12:35 PM 49.1 °F - 3.6 °F 16% 30.38 in 10.0 mi WSW 10.4 mph 17.3 mph N/A   Clear
12:55 PM 49.3 °F - 3.6 °F 15% 30.37 in 10.0 mi SW 11.5 mph 18.4 mph N/A   Clear
1:15 PM 49.1 °F - 4.5 °F 16% 30.37 in 10.0 mi SSW 11.5 mph 17.3 mph N/A   Clear
1:35 PM 49.5 °F - 3.9 °F 16% 30.37 in 10.0 mi SSW 15.0 mph 19.6 mph N/A   Clear
1:55 PM 48.6 °F - 3.9 °F 16% 30.37 in 10.0 mi SSW 11.5 mph 19.6 mph N/A   Clear
2:15 PM 48.4 °F - 3.4 °F 16% 30.37 in 10.0 mi SSW 12.7 mph - N/A   Clear
2:35 PM 48.6 °F - 3.4 °F 16% 30.37 in 10.0 mi SSW 11.5 mph 19.6 mph N/A   Clear
2:55 PM 48.2 °F - 4.5 °F 17% 30.37 in 10.0 mi SW 15.0 mph 20.7 mph N/A   Clear
3:15 PM 47.5 °F - 4.1 °F 17% 30.37 in 10.0 mi SW 12.7 mph 20.7 mph N/A   Clear
3:35 PM 47.1 °F - 3.9 °F 17% 30.36 in 10.0 mi SSW 9.2 mph 20.7 mph N/A   Clear
3:55 PM 46.4 °F 40.7 °F 4.3 °F 18% 30.37 in 10.0 mi WSW 12.7 mph 17.3 mph N/A   Clear
4:15 PM 45.7 °F 40.2 °F 3.6 °F 18% 30.37 in 10.0 mi SW 11.5 mph 19.6 mph N/A   Clear
4:35 PM 44.4 °F 38.6 °F 3.0 °F 18% 30.37 in 10.0 mi SSW 11.5 mph 18.4 mph N/A   Clear
4:55 PM 43.3 °F 37.2 °F 3.2 °F 19% 30.37 in 10.0 mi SW 11.5 mph 18.4 mph N/A   Clear
5:15 PM 42.1 °F 33.9 °F 3.9 °F 21% 30.37 in 10.0 mi SW 17.3 mph 20.7 mph N/A   Clear
5:35 PM 41.7 °F 34.1 °F 3.6 °F 21% 30.38 in 10.0 mi SW 15.0 mph 26.5 mph N/A   Clear
5:55 PM 41.0 °F 34.3 °F 3.9 °F 21% 30.39 in 10.0 mi SSW 11.5 mph 19.6 mph N/A   Clear
6:15 PM 39.9 °F 35.8 °F 5.0 °F 23% 30.40 in 10.0 mi SSW 5.8 mph 16.1 mph N/A   Clear
6:35 PM 39.4 °F 35.2 °F 4.6 °F 24% 30.40 in 10.0 mi SW 5.8 mph - N/A   Clear
6:55 PM 38.7 °F 32.9 °F 4.8 °F 24% 30.41 in 10.0 mi WSW 8.1 mph - N/A   Clear
7:15 PM 37.2 °F 33.6 °F 5.4 °F 27% 30.41 in 10.0 mi SSW 4.6 mph - N/A   Clear
7:35 PM 34.3 °F - 3.9 °F 28% 30.41 in 10.0 mi Calm Calm - N/A   Clear
7:55 PM 32.7 °F 29.6 °F 3.7 °F 29% 30.42 in 10.0 mi South 3.5 mph - N/A   Clear
8:15 PM 33.8 °F - 6.1 °F 31% 30.42 in 10.0 mi Calm Calm - N/A   Clear
8:35 PM 32.0 °F - 5.2 °F 32% 30.42 in 10.0 mi Calm Calm - N/A   Clear
8:55 PM 31.6 °F 28.3 °F 5.4 °F 33% 30.42 in 10.0 mi NW 3.5 mph - N/A   Clear
9:15 PM 30.9 °F 26.2 °F 8.1 °F 38% 30.42 in 10.0 mi NW 4.6 mph - N/A   Clear
9:35 PM 31.8 °F - 7.3 °F 36% 30.43 in 10.0 mi Calm Calm - N/A   Clear
9:55 PM 30.6 °F 27.1 °F 7.3 °F 38% 30.42 in 10.0 mi WNW 3.5 mph - N/A   Clear
10:15 PM 30.6 °F 27.1 °F 8.2 °F 39% 30.42 in 10.0 mi West 3.5 mph - N/A   Clear
10:35 PM 33.8 °F 28.6 °F 7.3 °F 33% 30.41 in 10.0 mi NW 5.8 mph - N/A   Clear
10:55 PM 32.0 °F 25.6 °F 6.4 °F 34% 30.41 in 10.0 mi NNW 6.9 mph - N/A   Clear
11:15 PM 32.0 °F 26.4 °F 8.1 °F 37% 30.40 in 10.0 mi NNW 5.8 mph - N/A   Clear
11:35 PM 31.1 °F 24.5 °F 8.4 °F 39% 30.40 in 10.0 mi NNW 6.9 mph - N/A   Clear
11:55 PM 31.1 °F 22.4 °F 8.2 °F 38% 30.39 in 10.0 mi NW 10.4 mph - N/A   Clear